SENTINEL-3A (41335 NORAD) Tracking and Keplerian Element Data

This shows tracking and keplerian element data for the satellite.

Feedback or suggestion? Click here.




ElementValue
Catalog41335
NameSENTINEL-3A
Epoch Orbit41171
Epoch Day13.12547173
Epoch Year2024
RAAN82.1581
Inclination98.6285
Eccentricity0.0001002
Argument of Perigee111.1399
Mean Anonmoly248.9888
Mean Motion14.26735065
Decay Rate2.58E-06
L11 41335U 16011A 24013.12547173 .00000258 00000+0 12459-3 0 9993
L22 41335 98.6285 82.1581 0001002 111.1399 248.9888 14.26735065411719



Live tracking and technical data element details for SENTINEL-3A (NORAD 41335). SENTINEL-3A can be tracked NOW for your location showing map with azimuth and elevation plus other details from your city location.







IsCatalogInMostPopularTable: catalog: 41335, numindb: 795
Update: records affected: 1



GetName: 41335 SENTINEL-3A

Hit Count: updated at: Fri, 19 Apr 2024 12:22:34 GMT